TimeCST,TemperatureF,Dew PointF,Humidity,Sea Level PressureIn,VisibilityMPH,Wind Direction,Wind SpeedMPH,Gust SpeedMPH,PrecipitationIn,Events,Conditions,WindDirDegrees,DateUTC
12:15 AM,63.5,62.4,96,29.92,10.0,SE,6.9,-,N/A,,Clear,140,2012-12-09 06:15:00
12:35 AM,63.5,62.2,96,29.92,10.0,SE,4.6,-,N/A,,Clear,140,2012-12-09 06:35:00
1:15 AM,62.8,61.9,97,29.92,10.0,SE,5.8,-,N/A,,Clear,140,2012-12-09 07:15:00
1:35 AM,63.0,62.1,97,29.91,10.0,SE,6.9,-,N/A,,Clear,140,2012-12-09 07:35:00
1:55 AM,62.6,61.7,97,29.91,10.0,SE,6.9,-,N/A,,Clear,140,2012-12-09 07:55:00
2:15 AM,62.8,61.9,97,29.91,10.0,SE,6.9,-,N/A,,Clear,140,2012-12-09 08:15:00
2:35 AM,63.9,62.6,96,29.90,10.0,SSE,8.1,-,N/A,,Clear,150,2012-12-09 08:35:00
2:55 AM,64.8,63.5,96,29.90,10.0,SSE,8.1,-,N/A,,Clear,150,2012-12-09 08:55:00
3:15 AM,64.9,63.9,96,29.90,10.0,SE,8.1,-,N/A,,Clear,140,2012-12-09 09:15:00
3:35 AM,64.9,64.0,97,29.90,10.0,SSE,6.9,-,N/A,,Mostly Cloudy,150,2012-12-09 09:35:00
3:55 AM,65.5,64.8,98,29.90,10.0,SSE,8.1,-,N/A,,Mostly Cloudy,150,2012-12-09 09:55:00
4:15 AM,65.8,65.3,98,29.90,10.0,SE,8.1,-,N/A,,Overcast,140,2012-12-09 10:15:00
4:35 AM,65.8,65.5,99,29.90,10.0,SSE,6.9,-,N/A,,Overcast,150,2012-12-09 10:35:00
4:55 AM,65.8,65.5,99,29.90,7.0,SE,6.9,-,N/A,,Overcast,140,2012-12-09 10:55:00
5:15 AM,65.7,65.3,99,29.90,7.0,SE,4.6,-,N/A,,Overcast,140,2012-12-09 11:15:00
5:35 AM,65.8,65.7,99,29.91,7.0,SE,4.6,-,N/A,,Overcast,140,2012-12-09 11:35:00
5:55 AM,66.0,66.0,100,29.92,5.0,SE,4.6,-,N/A,,Overcast,130,2012-12-09 11:55:00
6:15 AM,66.2,66.2,100,29.93,4.0,SE,5.8,-,N/A,,Overcast,140,2012-12-09 12:15:00
6:35 AM,65.8,65.8,100,29.94,3.0,SE,3.5,-,N/A,,Overcast,140,2012-12-09 12:35:00
6:55 AM,66.2,66.2,100,29.94,3.0,SE,4.6,-,N/A,,Overcast,130,2012-12-09 12:55:00
7:15 AM,66.4,66.4,100,29.93,2.0,SE,6.9,-,N/A,,Overcast,130,2012-12-09 13:15:00
7:35 AM,66.4,66.4,100,29.94,0.5,SE,6.9,-,N/A,Fog,Fog,140,2012-12-09 13:35:00
7:55 AM,66.7,66.7,100,29.94,0.8,SE,5.8,-,N/A,,Overcast,140,2012-12-09 13:55:00
8:15 AM,67.3,67.3,100,29.94,1.2,SE,4.6,-,N/A,,Overcast,140,2012-12-09 14:15:00
8:35 AM,68.2,68.2,100,29.94,5.0,SE,5.8,-,N/A,,Overcast,140,2012-12-09 14:35:00
8:55 AM,69.4,68.9,98,29.95,10.0,SSE,6.9,-,N/A,,Overcast,160,2012-12-09 14:55:00
9:15 AM,70.2,68.9,96,29.95,10.0,SSE,10.4,-,N/A,,Overcast,160,2012-12-09 15:15:00
9:35 AM,71.8,69.8,93,29.95,10.0,SSE,9.2,-,N/A,,Overcast,150,2012-12-09 15:35:00
9:55 AM,72.5,69.8,91,29.96,10.0,SSE,6.9,-,N/A,,Overcast,160,2012-12-09 15:55:00
10:15 AM,72.9,69.8,90,29.96,10.0,South,8.1,-,N/A,,Overcast,180,2012-12-09 16:15:00
10:35 AM,73.6,70.2,89,29.96,10.0,South,9.2,-,N/A,,Overcast,180,2012-12-09 16:35:00
10:55 AM,74.5,70.3,87,29.95,10.0,South,10.4,-,N/A,,Overcast,190,2012-12-09 16:55:00
11:15 AM,74.7,69.8,85,29.95,10.0,SSW,10.4,-,N/A,,Mostly Cloudy,200,2012-12-09 17:15:00
11:35 AM,75.7,68.4,78,29.94,10.0,SW,11.5,17.3,N/A,,Mostly Cloudy,220,2012-12-09 17:35:00
11:55 AM,77.0,67.5,72,29.93,10.0,SSW,13.8,17.3,N/A,,Mostly Cloudy,210,2012-12-09 17:55:00
12:15 PM,76.8,65.3,67,29.92,10.0,SW,12.7,20.7,N/A,,Scattered Clouds,220,2012-12-09 18:15:00
12:35 PM,78.8,64.6,62,29.90,10.0,SSW,11.5,-,N/A,,Mostly Cloudy,200,2012-12-09 18:35:00
12:55 PM,78.3,63.1,60,29.89,10.0,SSW,12.7,19.6,N/A,,Scattered Clouds,210,2012-12-09 18:55:00
1:15 PM,78.1,64.9,64,29.88,10.0,SW,11.5,23.0,N/A,,Scattered Clouds,220,2012-12-09 19:15:00
1:35 PM,78.4,66.2,66,29.88,10.0,SW,10.4,20.7,N/A,,Scattered Clouds,220,2012-12-09 19:35:00
1:55 PM,78.8,65.5,64,29.88,10.0,SW,12.7,18.4,N/A,,Mostly Cloudy,220,2012-12-09 19:55:00
2:15 PM,77.5,65.3,66,29.87,10.0,SSW,11.5,19.6,N/A,,Scattered Clouds,200,2012-12-09 20:15:00
2:35 PM,77.9,65.8,66,29.87,10.0,SSW,9.2,18.4,N/A,,Mostly Cloudy,210,2012-12-09 20:35:00
2:55 PM,77.7,66.7,69,29.87,10.0,SSW,12.7,19.6,N/A,,Mostly Cloudy,210,2012-12-09 20:55:00
3:15 PM,76.3,67.3,74,29.87,10.0,SW,6.9,18.4,N/A,,Mostly Cloudy,220,2012-12-09 21:15:00
3:35 PM,76.3,67.6,74,29.87,10.0,SSW,6.9,16.1,N/A,,Scattered Clouds,210,2012-12-09 21:35:00
3:55 PM,75.9,67.5,75,29.87,10.0,SSW,9.2,16.1,N/A,,Clear,200,2012-12-09 21:55:00
4:15 PM,75.4,68.2,78,29.87,10.0,South,9.2,-,N/A,,Mostly Cloudy,190,2012-12-09 22:15:00
4:35 PM,74.3,68.9,83,29.86,10.0,South,8.1,-,N/A,,Scattered Clouds,180,2012-12-09 22:35:00
4:55 PM,73.4,68.9,86,29.86,10.0,South,8.1,-,N/A,,Clear,180,2012-12-09 22:55:00
5:15 PM,72.7,68.7,87,29.85,10.0,South,4.6,-,N/A,,Clear,170,2012-12-09 23:15:00
5:35 PM,72.3,68.5,88,29.86,10.0,South,6.9,-,N/A,,Clear,180,2012-12-09 23:35:00
5:55 PM,71.6,68.5,90,29.85,10.0,SSE,8.1,-,N/A,,Clear,160,2012-12-09 23:55:00
6:15 PM,71.6,68.4,89,29.86,10.0,South,8.1,-,N/A,,Clear,170,2012-12-10 00:15:00
6:35 PM,71.6,68.2,89,29.85,10.0,SSE,8.1,-,N/A,,Clear,160,2012-12-10 00:35:00
6:55 PM,71.6,68.4,89,29.85,10.0,SSE,10.4,-,N/A,,Clear,160,2012-12-10 00:55:00
7:15 PM,71.6,68.5,90,29.85,10.0,South,9.2,-,N/A,,Clear,170,2012-12-10 01:15:00
7:35 PM,71.1,68.5,92,29.85,10.0,South,9.2,-,N/A,,Clear,170,2012-12-10 01:35:00
7:55 PM,70.7,68.5,93,29.86,10.0,South,8.1,-,N/A,,Clear,180,2012-12-10 01:55:00
8:15 PM,70.3,68.2,93,29.85,10.0,South,8.1,-,N/A,,Clear,170,2012-12-10 02:15:00
8:35 PM,70.5,68.2,92,29.85,10.0,South,6.9,-,N/A,,Clear,180,2012-12-10 02:35:00
8:55 PM,70.3,68.0,92,29.86,10.0,South,8.1,-,N/A,,Clear,180,2012-12-10 02:55:00
9:15 PM,70.0,68.0,93,29.87,10.0,South,8.1,-,N/A,,Clear,190,2012-12-10 03:15:00
9:35 PM,69.8,68.0,94,29.86,10.0,South,6.9,-,N/A,,Clear,190,2012-12-10 03:35:00
9:55 PM,69.8,68.0,94,29.86,10.0,South,8.1,-,N/A,,Clear,190,2012-12-10 03:55:00
10:15 PM,69.8,68.0,94,29.86,10.0,South,8.1,-,N/A,,Clear,180,2012-12-10 04:15:00
10:55 PM,69.4,67.6,94,29.87,10.0,South,3.5,-,N/A,,Clear,190,2012-12-10 04:55:00
11:15 PM,69.4,67.6,94,29.87,10.0,South,4.6,-,N/A,,Clear,190,2012-12-10 05:15:00
11:35 PM,69.4,68.0,95,29.86,10.0,South,6.9,-,N/A,,Clear,180,2012-12-10 05:35:00
11:55 PM,69.6,68.0,95,29.85,10.0,South,4.6,-,N/A,,Scattered Clouds,190,2012-12-10 05:55:00